Location: Newark
(45.6167°N, 9.2167°E)
Time: 05:17:53
(UTC+00:00)

OTV 5 (USA 277) - Visible Passes

Search period start: 16 October 2019 00:00
Search period end: 26 October 2019 00:00
Orbit: 310 x 324 km, 54.5° (Epoch: 08 October)

Date Brightness Start Highest point End Pass type
(mag) Time Alt. Az. Time Alt. Az. Time Alt. Az.
16 Oct ? 04:07:19 19° NNW 04:08:18 23° NNE 04:10:36 10° ENE visible
17 Oct ? 04:21:37 22° NNW 04:23:02 41° NNE 04:25:39 10° ESE visible
18 Oct ? 04:36:01 22° WNW 04:37:39 82° SSW 04:40:22 10° SE visible
19 Oct ? 03:19:36 15° E 03:19:36 15° E 03:20:16 10° E visible
19 Oct ? 04:50:31 17° W 04:52:06 30° SW 04:54:33 10° SSE visible
20 Oct ? 03:34:13 19° ESE 03:34:13 19° ESE 03:35:11 10° ESE visible
20 Oct ? 05:05:08 10° WSW 05:06:26 13° SW 05:07:44 10° SSW visible
21 Oct ? 03:48:58 16° SSE 03:48:58 16° SSE 03:49:39 10° SE visible
